User: anonymous   Login
Location: Melbourne
(37.8170°S, 144.9670°E)
Time: 04:06:55
(UTC+10:00)
Language:

ADEOS Rocket - Orbit

View from above orbital plane
View from above orbital plane
View from above satellite
View from above satellite

Ground track
Ground track

The orbit data is extracted from the following two-line orbital elements,

1 24279U 96046C   15148.54425416 -.00000020  00000-0  18019-4 0  9995
2 24279 098.6992 177.4485 0300885 044.2960 066.4488 13.47026101923188
Epoch (UTC): 28 May 2015 13:03:43
Eccentricity: 0.0300885
inclination: 98.6992°
perigee height: 859 km
apogee height: 1308 km
right ascension of ascending node: 177.4485°
argument of perigee: 44.2960°
revolutions per day: 13.47026101
mean anomaly at epoch: 66.4488°
orbit number at epoch: 92318

The dashed part of the orbit path shows where the satellite is in the earth's shadow,  

DLR